Regional Weather Roundup
Issued by NWS Newport/Morehead, NC

Current Version | Previous Version | Graphics & Text | Print | Product List | Glossary Off
Versions: 1 2 3 4 5 6 7 8 9 10 11 12 13 14 15 16 17 18 19 20 21 22 23 24 25 26 27 28 29 30 31 32 33 34 35 36 37 38 39 40 41 42 43 44 45 46 47 48 49 50

000
ASUS42 KMHX 221225
RWRMHX
WEATHER ROUNDUP FOR EASTERN NORTH CAROLINA
NATIONAL WEATHER SERVICE NEWPORT/MOREHEAD CITY NC
800 AM EDT MON MAY 22 2017

NOTE: "FAIR" INDICATES FEW OR NO CLOUDS BELOW 12,000 FEET
WITH NO SIGNIFICANT WEATHER AND/OR OBSTRUCTIONS TO VISIBILITY

NCZ015>017-031-032-045>047-102-103-221300-
NORTH COAST

CITY           SKY/WX    TMP DP  RH WIND       PRES   REMARKS
EDENTON        PTSUNNY   74  70  88 S6        30.09S
ELIZABETH CITY CLOUDY    73  70  90 SE9       30.08F
KITTY HAWK     NOT AVBL
MANTEO         CLOUDY    71  68  89 S7        30.10F

$$

NCZ045>047-081-094-103-104-221300-
CENTRAL COAST

CITY           SKY/WX    TMP DP  RH WIND       PRES   REMARKS
FRISCO         CLOUDY    74  69  85 SE5       30.10S

$$

NCZ095-097-098-100-101-221300-
SOUTHERN COAST

CITY           SKY/WX    TMP DP  RH WIND       PRES   REMARKS
BEAUFORT       CLOUDY    74  73  97 S5        30.09S
CEDAR ISLAND   NOT AVBL
JACKSONVILLE   MOSUNNY   74  71  91 S7        30.08S
PINEY ISLAND   CLOUDY   N/A N/A N/A S6        30.09S
WILMINGTON     PTSUNNY   75  69  81 S7        30.08S


$$

NCZ011>013-027>030-043-044-078>080-089-090>093-098-221300-
COASTAL PLAIN

CITY           SKY/WX    TMP DP  RH WIND       PRES   REMARKS
AHOSKIE          N/A     65  65  97 E3        30.08S FOG
CLINTON        PTSUNNY   73  70  92 SW6       30.07R
ELIZABETHTOWN  CLOUDY    72  70  93 S6        30.07S
GOLDSBORO      CLOUDY    71  71 100 S5        30.05R
GREENVILLE     CLOUDY    72  70  94 S6        30.09S
HAVELOCK       CLOUDY    72  69  90 SE6       30.10S
KENANSVILLE    CLOUDY    72  68  88 S3        30.07S
KINSTON        CLOUDY    72  70  94 CALM      30.08S
NEW BERN       PTSUNNY   72  71  97 S6        30.10S
RICHLANDS      CLOUDY    72  70  93 S9        30.08S
ROCKY MOUNT    LGT RAIN  67  67 100 SE5       30.05F FOG
WASHINGTON     FOG       69  67  93 SE3       30.08S VSB 1
WHITEVILLE     CLOUDY    72  70  92 S5        30.08S

$$

AMZ130-135-150-152-154-156-158-170-250-252-270-ANZ085-086-088-633-658-670-221300-
MARINE OBSERVATIONS

STATION/POSITION TIME  TEMP    WIND        PRES    WAVE   SWELL
                       AIR SEA DIR/SP/G            HT/PER HT/PER
                 (UTC) (F)     (DEG/KT/KT) (MB)    (FT/S) (FT/S)
CHESAPEAKE LIGHT NOT AVBL
64 E VA BEACH    1150   70 69  160/  8/ 10 1020.0    5/ 8   5/ 8
DUCK             1200   68 66  150/ 14/ 16 1018.4
2 E DUCK         1200      66                N/A     4/ 8
OREGON INLET     1200   69 69  110/  3/  6 1019.1
13E OREGON INLT  1148      65                N/A     4/ 7   3/ 7
HATTERAS CG      1200   74 74  140/  6/  8 1018.9
DIAMOND BUOY     1150   73 78  140/  6/  6 1019.5    4/ 9   3/ 9
CAPE LOOKOUT     1200   73     230/  2/  3 1018.7
BEAUFORT LAB     1200   74 73  180/  4/  5 1018.3
30 SE NEW RVR IN 1208   76 76  240/ 12/ 16 1019.1
30 SE NEW RVR IN 1143      76                N/A     3/ 8
27 SE WRIGHTSVLE 1208   76 75  210/ 12/ 17 1018.4
5 SE WRIGHTSVLE  1208   76 75  200/ 10/ 16 1018.6
225 S CAPE HAT   1150   75 77  210/  8/ 10 1020.4    3/ 8   3/ 8
41 SE CHARLESTON 1210   77 77  190/ 14/ 16 1018.8

$$




USA.gov is the U.S. government's official web portal to all federal, state and local government web resources and services.